Time,TemperatureF,DewpointF,PressureIn,WindDirection,WindDirectionDegrees,WindSpeedMPH,WindSpeedGustMPH,Humidity,HourlyPrecipIn,Conditions,Clouds,dailyrainin,SoftwareType,DateUTC
2013-03-28 00:02:00,36.0,25.0,-100.00,South,184,11.0,12.0,64,0.00,,,-99.99,,2013-03-28 06:02:00,
2013-03-28 00:12:00,36.0,25.0,-100.00,South,186,11.0,13.0,63,0.00,,,-99.99,,2013-03-28 06:12:00,
2013-03-28 00:22:00,36.0,25.0,-100.00,South,189,12.0,15.0,63,0.00,,,-99.99,,2013-03-28 06:22:00,
2013-03-28 00:32:00,36.0,25.0,-100.00,South,191,12.0,15.0,62,0.00,,,-99.99,,2013-03-28 06:32:00,
2013-03-28 00:42:00,37.0,25.0,-100.00,SSW,195,12.0,17.0,61,0.00,,,-99.99,,2013-03-28 06:42:00,
2013-03-28 00:52:00,37.0,24.0,-100.00,SSW,196,14.0,17.0,60,0.00,,,-99.99,,2013-03-28 06:52:00,
2013-03-28 01:02:00,36.0,24.0,-100.00,SSW,205,12.0,17.0,60,0.00,,,-99.99,,2013-03-28 07:02:00,
2013-03-28 01:12:00,36.0,24.0,-100.00,SSW,210,11.0,14.0,61,0.00,,,-99.99,,2013-03-28 07:12:00,
2013-03-28 01:22:00,36.0,24.0,-100.00,SSW,206,11.0,13.0,61,0.00,,,-99.99,,2013-03-28 07:22:00,
2013-03-28 01:32:00,36.0,24.0,-100.00,SSW,208,11.0,14.0,61,0.00,,,-99.99,,2013-03-28 07:32:00,
2013-03-28 01:42:00,36.0,23.0,-100.00,SSW,206,12.0,15.0,59,0.00,,,-99.99,,2013-03-28 07:42:00,
2013-03-28 01:52:00,36.0,23.0,-100.00,SSW,206,12.0,16.0,59,0.00,,,-99.99,,2013-03-28 07:52:00,
2013-03-28 02:02:00,36.0,23.0,-100.00,SSW,210,12.0,17.0,58,0.00,,,-99.99,,2013-03-28 08:02:00,
2013-03-28 02:12:00,36.0,22.0,-100.00,SSW,213,12.0,17.0,57,0.00,,,-99.99,,2013-03-28 08:12:00,
2013-03-28 02:21:00,35.0,22.0,-100.00,SSW,212,9.0,11.0,59,0.00,,,-99.99,,2013-03-28 08:21:00,
2013-03-28 02:32:00,35.0,22.0,-100.00,SSW,210,9.0,12.0,57,0.00,,,-99.99,,2013-03-28 08:32:00,
2013-03-28 02:42:00,35.0,21.0,-100.00,SSW,206,10.0,13.0,58,0.00,,,-99.99,,2013-03-28 08:42:00,
2013-03-28 02:52:00,35.0,21.0,-100.00,SSW,202,11.0,13.0,55,0.00,,,-99.99,,2013-03-28 08:52:00,
2013-03-28 03:02:00,35.0,20.0,-100.00,SSW,200,10.0,12.0,54,0.00,,,-99.99,,2013-03-28 09:02:00,
2013-03-28 03:12:00,36.0,20.0,-100.00,SSW,199,11.0,13.0,53,0.00,,,-99.99,,2013-03-28 09:12:00,
2013-03-28 03:22:00,35.0,20.0,-100.00,SSW,202,11.0,13.0,54,0.00,,,-99.99,,2013-03-28 09:22:00,
2013-03-28 03:32:00,35.0,20.0,-100.00,SSW,199,11.0,14.0,54,0.00,,,-99.99,,2013-03-28 09:32:00,
2013-03-28 03:42:00,35.0,20.0,-100.00,SSW,196,11.0,15.0,54,0.00,,,-99.99,,2013-03-28 09:42:00,
2013-03-28 03:52:00,35.0,21.0,-100.00,SSW,196,13.0,16.0,55,0.00,,,-99.99,,2013-03-28 09:52:00,
2013-03-28 04:03:00,35.0,21.0,-100.00,SSW,203,11.0,13.0,57,0.00,,,-99.99,,2013-03-28 10:03:00,
2013-03-28 04:12:00,35.0,20.0,-100.00,SSW,206,11.0,14.0,55,0.00,,,-99.99,,2013-03-28 10:12:00,
2013-03-28 04:22:00,35.0,20.0,-100.00,SSW,202,11.0,13.0,54,0.00,,,-99.99,,2013-03-28 10:22:00,
2013-03-28 04:33:00,35.0,20.0,-100.00,SSW,200,11.0,13.0,55,0.00,,,-99.99,,2013-03-28 10:33:00,
2013-03-28 04:42:00,34.0,20.0,-100.00,SSW,195,9.0,11.0,57,0.00,,,-99.99,,2013-03-28 10:42:00,
2013-03-28 04:52:00,34.0,20.0,-100.00,SSW,195,9.0,12.0,56,0.00,,,-99.99,,2013-03-28 10:52:00,
2013-03-28 05:02:00,34.0,20.0,-100.00,SSW,195,9.0,12.0,58,0.00,,,-99.99,,2013-03-28 11:02:00,
2013-03-28 05:12:00,34.0,20.0,-100.00,SSW,198,10.0,12.0,56,0.00,,,-99.99,,2013-03-28 11:12:00,
2013-03-28 05:22:00,35.0,20.0,-100.00,SSW,202,12.0,15.0,55,0.00,,,-99.99,,2013-03-28 11:22:00,
2013-03-28 05:32:00,34.0,20.0,-100.00,SSW,198,12.0,14.0,57,0.00,,,-99.99,,2013-03-28 11:32:00,
2013-03-28 05:42:00,34.0,20.0,-100.00,SSW,195,12.0,14.0,58,0.00,,,-99.99,,2013-03-28 11:42:00,
2013-03-28 05:52:00,35.0,20.0,-100.00,SSW,198,12.0,16.0,56,0.00,,,-99.99,,2013-03-28 11:52:00,
2013-03-28 06:02:00,34.0,20.0,-100.00,SSW,199,13.0,15.0,55,0.00,,,-99.99,,2013-03-28 12:02:00,
2013-03-28 06:12:00,34.0,20.0,-100.00,SSW,200,12.0,15.0,57,0.00,,,-99.99,,2013-03-28 12:12:00,
2013-03-28 06:22:00,34.0,21.0,-100.00,SSW,200,12.0,15.0,57,0.00,,,-99.99,,2013-03-28 12:22:00,
2013-03-28 06:32:00,34.0,20.0,-100.00,SSW,199,12.0,14.0,58,0.00,,,-99.99,,2013-03-28 12:32:00,
2013-03-28 06:42:00,34.0,20.0,-100.00,SSW,208,11.0,14.0,58,0.00,,,-99.99,,2013-03-28 12:42:00,
2013-03-28 06:52:00,34.0,20.0,-100.00,SSW,209,12.0,14.0,57,0.00,,,-99.99,,2013-03-28 12:52:00,
2013-03-28 07:02:00,34.0,20.0,-100.00,SSW,209,12.0,16.0,58,0.00,,,-99.99,,2013-03-28 13:02:00,
2013-03-28 07:12:00,34.0,20.0,-100.00,SSW,209,12.0,16.0,57,0.00,,,-99.99,,2013-03-28 13:12:00,
2013-03-28 07:22:00,34.0,20.0,-100.00,SSW,210,13.0,16.0,56,0.00,,,-99.99,,2013-03-28 13:22:00,
2013-03-28 07:32:00,34.0,20.0,-100.00,SSW,213,14.0,17.0,56,0.00,,,-99.99,,2013-03-28 13:32:00,
2013-03-28 07:52:00,35.0,20.0,-100.00,SSW,213,13.0,16.0,54,0.00,,,-99.99,,2013-03-28 13:52:00,
2013-03-28 08:02:00,37.0,20.0,-100.00,SW,216,13.0,17.0,50,0.00,,,-99.99,,2013-03-28 14:02:00,
2013-03-28 08:12:00,37.0,20.0,-100.00,SW,216,13.0,17.0,51,0.00,,,-99.99,,2013-03-28 14:12:00,
2013-03-28 08:22:00,38.0,20.0,-100.00,SW,219,13.0,17.0,49,0.00,,,-99.99,,2013-03-28 14:22:00,
2013-03-28 08:32:00,38.0,20.0,-100.00,SW,223,12.0,16.0,47,0.00,,,-99.99,,2013-03-28 14:32:00,
2013-03-28 08:42:00,38.0,20.0,-100.00,SW,227,12.0,15.0,47,0.00,,,-99.99,,2013-03-28 14:42:00,
2013-03-28 08:51:00,39.0,20.0,-100.00,SW,230,12.0,16.0,47,0.00,,,-99.99,,2013-03-28 14:51:00,
2013-03-28 09:02:00,39.0,20.0,-100.00,SW,236,13.0,17.0,45,0.00,,,-99.99,,2013-03-28 15:02:00,
2013-03-28 09:12:00,39.0,19.0,-100.00,WSW,237,13.0,17.0,45,0.00,,,-99.99,,2013-03-28 15:12:00,
2013-03-28 09:21:00,40.0,20.0,-100.00,WSW,239,13.0,18.0,45,0.00,,,-99.99,,2013-03-28 15:21:00,
2013-03-28 09:33:00,40.0,20.0,-100.00,SW,234,10.0,15.0,45,0.00,,,-99.99,,2013-03-28 15:33:00,
2013-03-28 09:43:00,40.0,19.0,-100.00,SW,234,11.0,15.0,43,0.00,,,-99.99,,2013-03-28 15:43:00,
2013-03-28 09:52:00,41.0,21.0,-100.00,WSW,243,11.0,15.0,45,0.00,,,-99.99,,2013-03-28 15:52:00,
2013-03-28 10:02:00,40.0,20.0,-100.00,WSW,239,11.0,15.0,43,0.00,,,-99.99,,2013-03-28 16:02:00,
2013-03-28 10:12:00,41.0,21.0,-100.00,WSW,240,12.0,16.0,45,0.00,,,-99.99,,2013-03-28 16:12:00,
2013-03-28 10:23:00,41.0,21.0,-100.00,WSW,243,11.0,15.0,45,0.00,,,-99.99,,2013-03-28 16:23:00,
2013-03-28 10:32:00,42.0,23.0,-100.00,WSW,256,11.0,15.0,46,0.00,,,-99.99,,2013-03-28 16:32:00,
2013-03-28 10:42:00,42.0,23.0,-100.00,WSW,248,12.0,16.0,46,0.00,,,-99.99,,2013-03-28 16:42:00,
2013-03-28 10:52:00,43.0,21.0,-100.00,West,260,13.0,16.0,41,0.00,,,-99.99,,2013-03-28 16:52:00,
2013-03-28 11:02:00,43.0,23.0,-100.00,West,264,12.0,17.0,45,0.00,,,-99.99,,2013-03-28 17:02:00,
2013-03-28 11:12:00,43.0,21.0,-100.00,West,265,13.0,18.0,41,0.00,,,-99.99,,2013-03-28 17:12:00,
2013-03-28 11:22:00,43.0,22.0,-100.00,WSW,246,12.0,16.0,42,0.00,,,-99.99,,2013-03-28 17:22:00,
2013-03-28 11:32:00,44.0,23.0,-100.00,SW,232,11.0,16.0,43,0.00,,,-99.99,,2013-03-28 17:32:00,
2013-03-28 11:42:00,44.0,23.0,-100.00,WSW,237,10.0,16.0,43,0.00,,,-99.99,,2013-03-28 17:42:00,
2013-03-28 11:52:00,44.0,23.0,-100.00,WSW,250,10.0,17.0,43,0.00,,,-99.99,,2013-03-28 17:52:00,
2013-03-28 12:02:00,45.0,24.0,-100.00,WSW,243,10.0,14.0,45,0.00,,,-99.99,,2013-03-28 18:02:00,
2013-03-28 12:12:00,44.0,24.0,-100.00,WSW,244,10.0,14.0,44,0.00,,,-99.99,,2013-03-28 18:12:00,
2013-03-28 12:22:00,46.0,24.0,-100.00,West,268,13.0,21.0,43,0.00,,,-99.99,,2013-03-28 18:22:00,
2013-03-28 12:32:00,45.0,22.0,-100.00,West,275,16.0,22.0,39,0.00,,,-99.99,,2013-03-28 18:32:00,
2013-03-28 12:42:00,45.0,23.0,-100.00,West,275,17.0,27.0,42,0.00,,,-99.99,,2013-03-28 18:42:00,
2013-03-28 12:52:00,45.0,24.0,-100.00,West,260,16.0,21.0,42,0.00,,,-99.99,,2013-03-28 18:52:00,
2013-03-28 13:02:00,45.0,24.0,-100.00,WSW,251,15.0,21.0,43,0.00,,,-99.99,,2013-03-28 19:02:00,
2013-03-28 13:12:00,45.0,23.0,-100.00,WSW,253,14.0,21.0,41,0.00,,,-99.99,,2013-03-28 19:12:00,
2013-03-28 13:22:00,45.0,24.0,-100.00,WSW,248,13.0,19.0,42,0.00,,,-99.99,,2013-03-28 19:22:00,
2013-03-28 13:32:00,46.0,24.0,-100.00,WSW,258,12.0,18.0,41,0.00,,,-99.99,,2013-03-28 19:32:00,
2013-03-28 13:42:00,46.0,22.0,-100.00,WSW,251,12.0,19.0,38,0.00,,,-99.99,,2013-03-28 19:42:00,
2013-03-28 13:52:00,47.0,24.0,-100.00,SW,220,11.0,16.0,41,0.00,,,-99.99,,2013-03-28 19:52:00,
2013-03-28 14:03:00,47.0,21.0,-100.00,WSW,237,12.0,16.0,35,0.00,,,-99.99,,2013-03-28 20:03:00,
2013-03-28 14:12:00,48.0,24.0,-100.00,WSW,244,11.0,17.0,39,0.00,,,-99.99,,2013-03-28 20:12:00,
2013-03-28 14:22:00,47.0,22.0,-100.00,SW,223,13.0,19.0,37,0.00,,,-99.99,,2013-03-28 20:22:00,
2013-03-28 14:32:00,47.0,21.0,-100.00,WSW,237,13.0,18.0,35,0.00,,,-99.99,,2013-03-28 20:32:00,
2013-03-28 14:42:00,47.0,20.0,-100.00,WSW,247,14.0,21.0,34,0.00,,,-99.99,,2013-03-28 20:42:00,
2013-03-28 14:52:00,47.0,21.0,-100.00,WSW,247,14.0,21.0,35,0.00,,,-99.99,,2013-03-28 20:52:00,
2013-03-28 15:02:00,49.0,21.0,-100.00,West,260,12.0,17.0,32,0.00,,,-99.99,,2013-03-28 21:02:00,
2013-03-28 15:12:00,48.0,23.0,-100.00,WSW,254,12.0,16.0,37,0.00,,,-99.99,,2013-03-28 21:12:00,
2013-03-28 15:22:00,48.0,19.0,-100.00,WSW,257,13.0,18.0,32,0.00,,,-99.99,,2013-03-28 21:22:00,
2013-03-28 15:32:00,48.0,22.0,-100.00,WSW,253,12.0,17.0,35,0.00,,,-99.99,,2013-03-28 21:32:00,
2013-03-28 15:42:00,50.0,23.0,-100.00,West,270,12.0,17.0,34,0.00,,,-99.99,,2013-03-28 21:42:00,
2013-03-28 15:53:00,49.0,20.0,-100.00,WSW,253,13.0,20.0,32,0.00,,,-99.99,,2013-03-28 21:53:00,
2013-03-28 16:02:00,49.0,22.0,-100.00,West,263,10.0,14.0,33,0.00,,,-99.99,,2013-03-28 22:02:00,
2013-03-28 16:12:00,50.0,20.0,-100.00,West,271,10.0,16.0,31,0.00,,,-99.99,,2013-03-28 22:12:00,
2013-03-28 16:22:00,49.0,21.0,-100.00,SW,234,12.0,21.0,33,0.00,,,-99.99,,2013-03-28 22:22:00,
2013-03-28 16:32:00,49.0,21.0,-100.00,WSW,248,12.0,19.0,33,0.00,,,-99.99,,2013-03-28 22:32:00,
2013-03-28 16:42:00,49.0,19.0,-100.00,WSW,237,12.0,17.0,31,0.00,,,-99.99,,2013-03-28 22:42:00,
2013-03-28 16:52:00,49.0,19.0,-100.00,West,264,10.0,16.0,30,0.00,,,-99.99,,2013-03-28 22:52:00,
2013-03-28 17:02:00,49.0,20.0,-100.00,West,264,9.0,16.0,31,0.00,,,-99.99,,2013-03-28 23:02:00,
2013-03-28 17:12:00,49.0,21.0,-100.00,WSW,250,7.0,15.0,32,0.00,,,-99.99,,2013-03-28 23:12:00,
2013-03-28 17:22:00,48.0,20.0,-100.00,WSW,256,7.0,12.0,32,0.00,,,-99.99,,2013-03-28 23:22:00,
2013-03-28 17:32:00,49.0,21.0,-100.00,WSW,241,10.0,13.0,32,0.00,,,-99.99,,2013-03-28 23:32:00,
2013-03-28 17:42:00,49.0,21.0,-100.00,SW,232,10.0,15.0,33,0.00,,,-99.99,,2013-03-28 23:42:00,
2013-03-28 17:52:00,47.0,23.0,-100.00,SW,234,9.0,14.0,38,0.00,,,-99.99,,2013-03-28 23:52:00,
2013-03-28 18:02:00,45.0,26.0,-100.00,SW,236,14.0,23.0,47,0.00,,,-99.99,,2013-03-29 00:02:00,
2013-03-28 18:12:00,44.0,25.0,-100.00,SW,236,16.0,23.0,48,0.00,,,-99.99,,2013-03-29 00:12:00,
2013-03-28 18:22:00,45.0,22.0,-100.00,WSW,258,17.0,28.0,39,0.00,,,-99.99,,2013-03-29 00:22:00,
2013-03-28 18:32:00,44.0,25.0,-100.00,SW,227,12.0,17.0,46,0.00,,,-99.99,,2013-03-29 00:32:00,
2013-03-28 18:42:00,44.0,26.0,-100.00,SSW,205,12.0,17.0,49,0.00,,,-99.99,,2013-03-29 00:42:00,
2013-03-28 18:52:00,47.0,21.0,-100.00,SSW,206,8.0,17.0,35,0.00,,,-99.99,,2013-03-29 00:52:00,
2013-03-28 19:02:00,46.0,23.0,-100.00,SSW,212,9.0,14.0,41,0.00,,,-99.99,,2013-03-29 01:02:00,
2013-03-28 19:12:00,44.0,24.0,-100.00,SSW,195,9.0,14.0,45,0.00,,,-99.99,,2013-03-29 01:12:00,
2013-03-28 19:22:00,43.0,23.0,-100.00,SSW,206,9.0,11.0,45,0.00,,,-99.99,,2013-03-29 01:22:00,
2013-03-28 19:32:00,43.0,23.0,-100.00,SSW,203,9.0,11.0,45,0.00,,,-99.99,,2013-03-29 01:32:00,
2013-03-28 19:42:00,42.0,23.0,-100.00,SSW,203,10.0,11.0,46,0.00,,,-99.99,,2013-03-29 01:42:00,
2013-03-28 19:52:00,41.0,23.0,-100.00,SW,215,10.0,12.0,47,0.00,,,-99.99,,2013-03-29 01:52:00,
2013-03-28 20:02:00,44.0,21.0,-100.00,SW,227,10.0,12.0,41,0.00,,,-99.99,,2013-03-29 02:02:00,
2013-03-28 20:12:00,44.0,22.0,-100.00,SW,227,10.0,12.0,42,0.00,,,-99.99,,2013-03-29 02:12:00,
2013-03-28 20:22:00,42.0,23.0,-100.00,SW,220,11.0,12.0,48,0.00,,,-99.99,,2013-03-29 02:22:00,
2013-03-28 20:32:00,41.0,24.0,-100.00,SSW,210,12.0,14.0,50,0.00,,,-99.99,,2013-03-29 02:32:00,
2013-03-28 20:42:00,42.0,24.0,-100.00,SSW,210,12.0,16.0,50,0.00,,,-99.99,,2013-03-29 02:42:00,
2013-03-28 20:52:00,42.0,24.0,-100.00,SSW,200,12.0,14.0,47,0.00,,,-99.99,,2013-03-29 02:52:00,
2013-03-28 21:02:00,41.0,24.0,-100.00,SSW,193,11.0,13.0,50,0.00,,,-99.99,,2013-03-29 03:02:00,
2013-03-28 21:12:00,42.0,23.0,-100.00,SSW,196,11.0,14.0,46,0.00,,,-99.99,,2013-03-29 03:12:00,
2013-03-28 21:22:00,41.0,23.0,-100.00,SSW,192,15.0,18.0,48,0.00,,,-99.99,,2013-03-29 03:22:00,
2013-03-28 21:32:00,41.0,23.0,-100.00,South,189,15.0,17.0,49,0.00,,,-99.99,,2013-03-29 03:32:00,
2013-03-28 21:42:00,41.0,23.0,-100.00,South,186,14.0,16.0,49,0.00,,,-99.99,,2013-03-29 03:42:00,
2013-03-28 21:52:00,41.0,23.0,-100.00,South,189,14.0,17.0,50,0.00,,,-99.99,,2013-03-29 03:52:00,
2013-03-28 22:03:00,41.0,23.0,-100.00,SSW,192,17.0,19.0,49,0.00,,,-99.99,,2013-03-29 04:03:00,
2013-03-28 22:12:00,41.0,24.0,-100.00,South,191,16.0,18.0,49,0.00,,,-99.99,,2013-03-29 04:12:00,
2013-03-28 22:22:00,42.0,23.0,-100.00,SSW,196,15.0,17.0,47,0.00,,,-99.99,,2013-03-29 04:22:00,
2013-03-28 22:33:00,42.0,24.0,-100.00,SSW,198,15.0,19.0,48,0.00,,,-99.99,,2013-03-29 04:33:00,
2013-03-28 22:42:00,42.0,24.0,-100.00,SSW,192,16.0,18.0,49,0.00,,,-99.99,,2013-03-29 04:42:00,
2013-03-28 22:52:00,41.0,24.0,-100.00,South,191,16.0,18.0,50,0.00,,,-99.99,,2013-03-29 04:52:00,
2013-03-28 23:03:00,41.0,24.0,-100.00,SSW,192,15.0,17.0,49,0.00,,,-99.99,,2013-03-29 05:03:00,
2013-03-28 23:12:00,41.0,24.0,-100.00,SSW,192,15.0,17.0,50,0.00,,,-99.99,,2013-03-29 05:12:00,
2013-03-28 23:23:00,41.0,24.0,-100.00,SSW,193,19.0,22.0,49,0.00,,,-99.99,,2013-03-29 05:23:00,
2013-03-28 23:32:00,41.0,24.0,-100.00,SSW,192,19.0,21.0,51,0.00,,,-99.99,,2013-03-29 05:32:00,
2013-03-28 23:43:00,41.0,24.0,-100.00,SSW,192,17.0,19.0,52,0.00,,,-99.99,,2013-03-29 05:43:00,
2013-03-28 23:52:00,41.0,24.0,-100.00,SSW,193,16.0,17.0,51,0.00,,,-99.99,,2013-03-29 05:52:00,